EW2958 Weather Reports


Display with metric or nautical units.
time (UTC)temp
F
wind
direction
speed
MPH
gust
MPH
rain 1hr
in
rain 24hr
in
rain mn
in
humidity
%
barometer
mb
20260509011553 56 288 5.0 9.0 0.00 0.00 0.00 81 1028.2
20260509010045 56 284 4.0 10.0 0.00 0.00 0.00 82 1028.2
20260509004553 56 271 5.0 10.0 0.00 0.00 0.00 84 1028.1
20260509003050 55 278 6.0 12.0 0.00 0.00 0.00 85 1028.1
20260509001539 54 271 3.0 9.0 0.00 0.00 0.00 87 1028.3
20260509000038 54 255 2.0 10.0 0.00 0.00 0.00 87 1028.4
20260508234535 53 236 3.0 9.0 0.00 0.00 0.00 88 1028.3
20260508233034 53 274 4.0 11.0 0.00 0.00 0.00 90 1028.2
20260508231530 53 261 5.0 10.0 0.00 0.00 0.00 91 1028.0
20260508230027 52 296 4.0 11.0 0.00 0.00 0.00 92 1027.8
20260508224530 51 274 4.0 9.0 0.00 0.00 0.00 92 1027.8
20260508223040 51 245 4.0 9.0 0.00 0.00 0.00 91 1027.8
20260508221524 50 285 3.0 8.0 0.00 0.00 0.00 91 1027.6
20260508220023 50 261 4.0 9.0 0.00 0.00 0.00 91 1027.5
20260508214520 50 274 3.0 6.0 0.00 0.00 0.00 91 1027.4
20260508213023 50 266 3.0 6.0 0.00 0.00 0.00 91 1027.3
20260508211517 50 274 3.0 6.0 0.00 0.00 0.00 91 1027.2
20260508210019 50 295 3.0 6.0 0.00 0.00 0.00 91 1027.1
20260508204515 50 269 4.0 7.0 0.00 0.00 0.00 91 1027.0
20260508203013 50 255 5.0 9.0 0.00 0.00 0.00 91 1026.8
20260508201517 50 258 4.0 7.0 0.00 0.00 0.00 91 1026.8
20260508200013 50 276 4.0 8.0 0.00 0.00 0.00 91 1026.6
20260508194506 50 274 5.0 8.0 0.00 0.00 0.00 91 1026.3
20260508193003 49 264 5.0 9.0 0.00 0.00 0.00 91 1026.3
20260508191600 49 285 4.0 7.0 0.00 0.00 0.00 90 1026.2
20260508190058 50 287 4.0 8.0 0.00 0.00 0.00 91 1026.1
20260508184557 50 293 5.0 8.0 0.00 0.00 0.00 91 1025.9
20260508183054 50 267 4.0 7.0 0.00 0.00 0.00 91 1025.8
20260508181556 50 265 3.0 7.0 0.00 0.00 0.00 91 1025.7
20260508180050 50 282 4.0 6.0 0.00 0.00 0.00 91 1025.6
20260508174556 50 276 4.0 6.0 0.00 0.00 0.00 90 1025.6
20260508173049 50 260 4.0 8.0 0.00 0.00 0.00 91 1025.4
20260508171545 50 254 6.0 9.0 0.00 0.00 0.00 91 1025.5
20260508170045 50 269 5.0 7.0 0.00 0.00 0.00 91 1025.5
20260508164541 50 272 2.0 6.0 0.00 0.00 0.00 90 1025.6
20260508163039 50 289 2.0 5.0 0.00 0.00 0.00 90 1025.6
20260508161538 51 280 4.0 7.0 0.00 0.00 0.00 90 1025.5
20260508160035 50 262 3.0 6.0 0.00 0.00 0.00 90 1025.6
20260508154534 50 279 3.0 5.0 0.00 0.00 0.00 90 1025.5
20260508153038 50 262 4.0 6.0 0.00 0.00 0.00 90 1025.5
20260508151530 49 265 4.0 7.0 0.00 0.00 0.00 90 1025.5
20260508150047 49 284 4.0 8.0 0.00 0.00 0.00 89 1025.3
20260508144524 50 269 4.0 6.0 0.00 0.00 0.00 89 1025.5
20260508143022 50 269 4.0 7.0 0.00 0.00 0.00 88 1025.5
20260508141524 51 278 3.0 7.0 0.00 0.00 0.00 88 1025.5
20260508140023 51 264 2.0 5.0 0.00 0.00 0.00 87 1025.6
20260508134513 51 278 3.0 7.0 0.00 0.00 0.00 87 1025.6
20260508133012 52 270 2.0 6.0 0.00 0.00 0.00 86 1025.6
20260508131509 52 277 4.0 9.0 0.00 0.00 0.00 86 1025.5
20260508130005 52 269 6.0 9.0 0.00 0.00 0.00 85 1025.6
20260508124505 53 265 4.0 8.0 0.00 0.00 0.00 84 1025.7
20260508123100 53 261 3.0 10.0 0.00 0.00 0.00 83 1025.9
20260508121558 53 269 5.0 9.0 0.00 0.00 0.00 82 1026.0
20260508120058 53 269 6.0 11.0 0.00 0.00 0.00 82 1025.9
20260508114655 53 262 5.0 10.0 0.00 0.00 0.00 81 1025.8
20260508113057 53 257 5.0 10.0 0.00 0.00 0.00 81 1025.7
20260508111602 54 272 5.0 11.0 0.00 0.00 0.00 80 1025.6
20260508110056 53 266 4.0 8.0 0.00 0.00 0.00 81 1025.7
20260508104552 53 276 4.0 8.0 0.00 0.00 0.00 81 1025.6
20260508103053 54 283 3.0 7.0 0.00 0.00 0.00 81 1025.5
20260508101553 54 277 3.0 6.0 0.00 0.00 0.00 81 1025.4
20260508100047 54 267 4.0 8.0 0.00 0.00 0.00 80 1025.2
20260508094548 55 269 1.0 5.0 0.00 0.00 0.00 79 1025.2
20260508093045 55 274 0.0 5.0 0.00 0.00 0.00 78 1025.0
20260508091549 55 268 1.0 4.0 0.00 0.00 0.00 77 1025.0
20260508090041 56 257 4.0 10.0 0.00 0.00 0.00 76 1024.7
20260508084539 56 267 2.0 9.0 0.00 0.00 0.00 76 1024.7
20260508083045 56 253 3.0 8.0 0.00 0.00 0.00 75 1024.4
20260508081536 56 239 2.0 6.0 0.00 0.00 0.00 74 1024.3
20260508080057 56 269 2.0 7.0 0.00 0.00 0.00 72 1024.2
20260508074535 57 253 2.0 7.0 0.00 0.00 0.00 70 1023.9
20260508073031 58 226 3.0 8.0 0.00 0.00 0.00 71 1023.7
20260508071529 58 259 5.0 12.0 0.00 0.00 0.00 69 1023.5
20260508070028 60 269 6.0 12.0 0.00 0.00 0.00 67 1023.3
20260508064540 60 259 4.0 10.0 0.00 0.00 0.00 66 1023.2
20260508063029 61 267 4.0 14.0 0.00 0.00 0.00 66 1023.2
20260508061531 60 252 6.0 15.0 0.00 0.00 0.00 65 1023.0
20260508060026 60 259 5.0 16.0 0.00 0.00 0.00 66 1023.0
20260508054539 60 255 6.0 17.0 0.00 0.00 0.00 66 1022.9
20260508053126 60 264 5.0 16.0 0.00 0.00 0.00 64 1022.8
20260508051532 60 270 6.0 15.0 0.00 0.00 0.00 66 1022.8
20260508050015 60 257 5.0 18.0 0.00 0.00 0.00 66 1022.8
20260508044515 60 260 10.0 17.0 0.00 0.01 0.00 66 1022.7
20260508043014 61 280 7.0 18.0 0.00 0.01 0.00 66 1022.7
20260508041514 61 244 3.0 17.0 0.00 0.01 0.00 66 1022.8
20260508040033 61 256 6.0 18.0 0.00 0.01 0.00 63 1022.6
20260508034511 61 243 7.0 20.0 0.00 0.01 0.00 64 1022.6
20260508033010 61 245 5.0 15.0 0.00 0.01 0.00 64 1022.6
20260508031514 61 256 8.0 17.0 0.00 0.01 0.00 62 1022.7
20260508030008 60 255 6.0 19.0 0.00 0.01 0.00 66 1022.8
20260508024518 60 264 6.0 15.0 0.00 0.01 0.00 65 1022.9
20260508023010 59 278 5.0 12.0 0.00 0.01 0.00 67 1023.1
20260508021507 60 150 7.0 14.0 0.00 0.01 0.00 67 1023.2
20260508020003 60 252 7.0 20.0 0.00 0.02 0.00 69 1023.3
20260508014559 61 248 9.0 16.0 0.00 0.02 0.00 64 1023.2
20260508013054 60 248 5.0 17.0 0.00 0.02 0.00 71 1023.2